Brightest
NORAD ID: 20261
Int'l Code: 1989-080A
Perigee: 506.1 km
Apogee: 2,400.8 km
Inclination: 82.6 °
Period: 114.8 minutes
Semi major axis: 7824 km
Launch date: September 28, 1989
Source: Commonwealth of Independent States (former USSR) (CIS)
Two Line Element Set (TLE):
1 20261U 89080A 13169.14207406 .00000484 00000-0 14392-3 0 821
2 20261 082.5911 235.0911 1210733 220.5623 129.8886 12.54352343 82775
Source:
NASA's NSSDC Master Catalog entry for INTERCOSMOS 24